Погода в Голубовке

Украина / Днепропетровская область     48°53′09″N   35°19′41″E
темп.,
°C
ветер,
м/с
пор.,
м/с
влажн.,
%
обл.,
%
осадки,
мм/ч
давл.,
гПа
погр.,
м
19 апреля, пн
пн1900:00+9св1173100 0.0 101616
03:00+8ссз2480100 0.0 1016105
06:00+8с3485100 0.0 1015117
09:00+10с2277100 0.0 1015323
12:00+13зюз1258100 0.3 10141138
15:00+15з334697 0.3 10141822
18:00+14зсз1251100 0.0 1013509
21:00+12ссв115884 0.0 101316
20 апреля, вт
вт2000:00+10св226411 0.0 101119
03:00+9св3471100 0.0 101076
06:00+9всв3876100 0.0 1008212
09:00+9ссв3687100 0.9 1007266
12:00+11ссв6884100 1.2 1003692
15:00+9с61193100 9.4 1001634
18:00+10ссз71191100 5.1 1000806
21:00+9сз61091100 5.5 1003534
21 апреля, ср
ср2100:00+9з4892100 0.1 1006390
03:00+8зюз4794100 0.1 1008266
06:00+8зюз4795100 0.4 1010279
09:00+10зюз468273 1.1 1012602
12:00+13зюз566119 0.5 10131218
15:00+14з6750100 0.9 10141988
18:00+13з46574 0.0 10151051
21:00+10ююз226247 0.0 101710
22 апреля, чт
чт2200:00+9ююв237299 0.0 101725
03:00+8з358199 0.0 1018107
06:00+9ю3681100 0.0 1018155
09:00+11ю577094 0.0 1019652
12:00+14ююз5556100 0.3 10191477
15:00+14зюз4557100 0.9 10191100
18:00+14юз246228 0.0 1019568
21:00+12ю2265100 0.0 102035
23 апреля, пт
пт2300:00+12ю3668100 0.0 1020111
03:00+11ююз3678100 0.0 1019154
06:00+10ююз3879100 0.0 1020237
09:00+13ююз57637 0.0 1019516
12:00+17ююз684716 0.0 10191713
15:00+18ююз894070 0.0 10172561
18:00+15ююз5115652 0.0 1016571
21:00+12юз61172100 1.1 1017393